| time (UTC) | temp F | wind direction | speed MPH | gust MPH | rain 1hr in | rain 24hr in | rain mn in | humidity % | barometer mb |
| 20260904223627 | 85 | 168 | 0.0 | 0.0 | 0.00 | 0.00 | 0.00 | 86 | 1013.1 |
| 20260904223122 | 86 | 155 | 0.0 | 0.0 | 0.00 | 0.00 | 0.00 | 86 | 1013.2 |
| 20260904222618 | 86 | 177 | 0.0 | 0.0 | 0.00 | 0.00 | 0.00 | 85 | 1013.1 |
| 20260904222113 | 86 | 164 | 0.0 | 0.0 | 0.00 | 0.00 | 0.00 | 83 | 1012.9 |
| 20260904221608 | 86 | 177 | 0.0 | 0.0 | 0.00 | 0.00 | 0.00 | 82 | 1012.7 |
| 20260904221108 | 88 | 183 | 0.0 | 0.0 | 0.00 | 0.00 | 0.00 | 82 | 1012.7 |
| 20260904220603 | 89 | 122 | 0.0 | 0.0 | 0.00 | 0.00 | 0.00 | 79 | 1012.7 |
| 20260904220058 | 89 | 232 | 0.0 | 1.0 | 0.00 | 0.00 | 0.00 | 79 | 1012.7 |
| 20260904215558 | 89 | 342 | 0.0 | 0.0 | 0.00 | 0.00 | 0.00 | 80 | 1012.8 |
| 20260904215054 | 90 | 253 | 0.0 | 0.0 | 0.00 | 0.00 | 0.00 | 78 | 1012.8 |
| 20260904214549 | 91 | 257 | 0.0 | 0.0 | 0.00 | 0.00 | 0.00 | 76 | 1013.0 |
| 20260904214044 | 91 | 318 | 0.0 | 0.0 | 0.00 | 0.00 | 0.00 | 76 | 1013.0 |
| 20260904213542 | 91 | 260 | 0.0 | 0.0 | 0.00 | 0.00 | 0.00 | 78 | 1012.4 |
| 20260904213039 | 91 | 213 | 1.0 | 2.0 | 0.00 | 0.00 | 0.00 | 77 | 1012.4 |
| 20260904212538 | 90 | 199 | 0.0 | 0.0 | 0.00 | 0.00 | 0.00 | 78 | 1012.7 |
| 20260904212034 | 90 | 272 | 0.0 | 0.0 | 0.00 | 0.00 | 0.00 | 78 | 1012.8 |
| 20260904211534 | 90 | 9 | 0.0 | 0.0 | 0.00 | 0.00 | 0.00 | 79 | 1012.5 |
| 20260904211029 | 89 | 277 | 0.0 | 1.0 | 0.00 | 0.00 | 0.00 | 79 | 1012.4 |
| 20260904210528 | 89 | 274 | 0.0 | 0.0 | 0.00 | 0.00 | 0.00 | 79 | 1012.6 |
| 20260904210025 | 89 | 292 | 1.0 | 2.0 | 0.00 | 0.00 | 0.00 | 80 | 1012.6 |
| 20260904205520 | 89 | 303 | 5.0 | 7.0 | 0.00 | 0.00 | 0.00 | 78 | 1012.4 |
| 20260904205016 | 89 | 297 | 4.0 | 6.0 | 0.00 | 0.00 | 0.00 | 79 | 1012.5 |
| 20260904204512 | 89 | 317 | 3.0 | 6.0 | 0.00 | 0.00 | 0.00 | 78 | 1012.4 |
| 20260904204008 | 89 | 259 | 1.0 | 5.0 | 0.00 | 0.00 | 0.00 | 79 | 1012.3 |
| 20260904203504 | 89 | 273 | 0.0 | 1.0 | 0.00 | 0.00 | 0.00 | 80 | 1012.7 |
| 20260904203000 | 89 | 271 | 0.0 | 0.0 | 0.00 | 0.00 | 0.00 | 79 | 1012.5 |
| 20260904202456 | 90 | 300 | 0.0 | 0.0 | 0.00 | 0.00 | 0.00 | 79 | 1012.5 |
| 20260904201952 | 91 | 290 | 3.0 | 5.0 | 0.00 | 0.00 | 0.00 | 77 | 1012.3 |
| 20260904201451 | 92 | 208 | 0.0 | 0.0 | 0.00 | 0.00 | 0.00 | 76 | 1012.1 |
| 20260904200948 | 93 | 283 | 0.0 | 0.0 | 0.00 | 0.00 | 0.00 | 70 | 1012.4 |
| 20260904200445 | 95 | 266 | 0.0 | 1.0 | 0.00 | 0.00 | 0.00 | 69 | 1012.5 |
| 20260904195941 | 95 | 188 | 0.0 | 0.0 | 0.00 | 0.00 | 0.00 | 69 | 1012.8 |
| 20260904195439 | 93 | 187 | 0.0 | 0.0 | 0.00 | 0.00 | 0.00 | 72 | 1012.5 |
| 20260904194938 | 92 | 220 | 0.0 | 0.0 | 0.00 | 0.00 | 0.00 | 72 | 1012.8 |
| 20260904194433 | 92 | 270 | 1.0 | 2.0 | 0.00 | 0.00 | 0.00 | 74 | 1013.0 |
| 20260904193928 | 91 | 224 | 0.0 | 0.0 | 0.00 | 0.00 | 0.00 | 74 | 1012.8 |
| 20260904193423 | 90 | 238 | 0.0 | 0.0 | 0.00 | 0.00 | 0.00 | 76 | 1012.9 |
| 20260904192919 | 89 | 219 | 0.0 | 0.0 | 0.00 | 0.00 | 0.00 | 75 | 1013.1 |
| 20260904192414 | 89 | 170 | 0.0 | 0.0 | 0.00 | 0.00 | 0.00 | 75 | 1013.2 |
| 20260904191910 | 89 | 222 | 0.0 | 0.0 | 0.00 | 0.00 | 0.00 | 74 | 1013.1 |
| 20260904191407 | 90 | 219 | 0.0 | 0.0 | 0.00 | 0.00 | 0.00 | 73 | 1013.3 |
| 20260904190903 | 90 | 171 | 0.0 | 0.0 | 0.00 | 0.00 | 0.00 | 73 | 1013.2 |
| 20260904190358 | 90 | 213 | 0.0 | 0.0 | 0.00 | 0.00 | 0.00 | 72 | 1013.2 |
| 20260904185855 | 91 | 252 | 0.0 | 0.0 | 0.00 | 0.00 | 0.00 | 71 | 1013.3 |
| 20260904185350 | 92 | 279 | 1.0 | 3.0 | 0.00 | 0.00 | 0.00 | 68 | 1013.6 |
| 20260904184849 | 93 | 274 | 6.0 | 9.0 | 0.00 | 0.00 | 0.00 | 67 | 1013.4 |
| 20260904184344 | 93 | 204 | 0.0 | 2.0 | 0.00 | 0.00 | 0.00 | 72 | 1013.3 |
| 20260904183840 | 92 | 321 | 0.0 | 0.0 | 0.00 | 0.00 | 0.00 | 70 | 1013.3 |
| 20260904183335 | 91 | 208 | 1.0 | 5.0 | 0.00 | 0.00 | 0.00 | 70 | 1013.5 |
| 20260904182830 | 92 | 264 | 0.0 | 0.0 | 0.00 | 0.00 | 0.00 | 72 | 1013.5 |
| 20260904182325 | 92 | 243 | 0.0 | 0.0 | 0.00 | 0.00 | 0.00 | 74 | 1013.5 |
| 20260904181821 | 92 | 241 | 0.0 | 0.0 | 0.00 | 0.00 | 0.00 | 72 | 1013.6 |
| 20260904181320 | 92 | 247 | 0.0 | 0.0 | 0.00 | 0.00 | 0.00 | 72 | 1013.6 |
| 20260904180816 | 92 | 255 | 3.0 | 7.0 | 0.00 | 0.00 | 0.00 | 73 | 1014.0 |
| 20260904180311 | 92 | 197 | 0.0 | 0.0 | 0.00 | 0.00 | 0.00 | 71 | 1013.9 |
| 20260904175809 | 91 | 203 | 0.0 | 0.0 | 0.00 | 0.00 | 0.00 | 73 | 1014.0 |
| 20260904175308 | 92 | 278 | 0.0 | 0.0 | 0.00 | 0.00 | 0.00 | 71 | 1013.9 |
| 20260904174803 | 91 | 231 | 0.0 | 0.0 | 0.00 | 0.00 | 0.00 | 74 | 1014.2 |
| 20260904174259 | 91 | 211 | 0.0 | 0.0 | 0.00 | 0.00 | 0.00 | 72 | 1014.0 |
| 20260904173755 | 91 | 238 | 0.0 | 0.0 | 0.00 | 0.00 | 0.00 | 75 | 1014.1 |
| 20260904173250 | 90 | 274 | 1.0 | 2.0 | 0.00 | 0.00 | 0.00 | 74 | 1014.2 |
| 20260904172746 | 91 | 238 | 0.0 | 0.0 | 0.00 | 0.00 | 0.00 | 74 | 1014.3 |
| 20260904172245 | 90 | 217 | 0.0 | 0.0 | 0.00 | 0.00 | 0.00 | 75 | 1014.3 |
| 20260904171740 | 89 | 258 | 2.0 | 6.0 | 0.00 | 0.00 | 0.00 | 76 | 1014.4 |
| 20260904171235 | 91 | 248 | 3.0 | 5.0 | 0.00 | 0.00 | 0.00 | 74 | 1014.5 |
| 20260904170731 | 92 | 221 | 0.0 | 0.0 | 0.00 | 0.00 | 0.00 | 72 | 1014.3 |
| 20260904170228 | 91 | 197 | 0.0 | 0.0 | 0.00 | 0.00 | 0.00 | 74 | 1014.6 |
| 20260904165726 | 93 | 179 | 0.0 | 0.0 | 0.00 | 0.00 | 0.00 | 71 | 1014.5 |
| 20260904165221 | 91 | 213 | 0.0 | 0.0 | 0.00 | 0.00 | 0.00 | 72 | 1014.6 |
| 20260904164715 | 91 | 210 | 0.0 | 1.0 | 0.00 | 0.00 | 0.00 | 74 | 1014.6 |
| 20260904164210 | 90 | 210 | 0.0 | 0.0 | 0.00 | 0.00 | 0.00 | 73 | 1014.9 |
| 20260904163706 | 90 | 205 | 0.0 | 0.0 | 0.00 | 0.00 | 0.00 | 75 | 1014.8 |
| 20260904163201 | 91 | 256 | 0.0 | 0.0 | 0.00 | 0.00 | 0.00 | 74 | 1014.7 |
| 20260904162700 | 91 | 259 | 1.0 | 1.0 | 0.00 | 0.00 | 0.00 | 76 | 1014.9 |
| 20260904162155 | 93 | 203 | 0.0 | 0.0 | 0.00 | 0.00 | 0.00 | 75 | 1015.2 |
| 20260904161651 | 90 | 158 | 0.0 | 0.0 | 0.00 | 0.00 | 0.00 | 77 | 1014.9 |
| 20260904161146 | 91 | 212 | 0.0 | 0.0 | 0.00 | 0.00 | 0.00 | 77 | 1014.9 |
| 20260904160642 | 90 | 183 | 0.0 | 0.0 | 0.00 | 0.00 | 0.00 | 78 | 1015.0 |
| 20260904160137 | 89 | 207 | 0.0 | 0.0 | 0.00 | 0.00 | 0.00 | 78 | 1015.2 |
| 20260904155632 | 90 | 220 | 0.0 | 0.0 | 0.00 | 0.00 | 0.00 | 79 | 1015.0 |
| 20260904155126 | 91 | 228 | 0.0 | 0.0 | 0.00 | 0.00 | 0.00 | 78 | 1015.0 |
| 20260904154624 | 91 | 214 | 0.0 | 0.0 | 0.00 | 0.00 | 0.00 | 79 | 1015.0 |
| 20260904154119 | 89 | 209 | 0.0 | 0.0 | 0.00 | 0.00 | 0.00 | 83 | 1015.3 |
| 20260904153614 | 88 | 260 | 0.0 | 0.0 | 0.00 | 0.00 | 0.00 | 83 | 1015.1 |
| 20260904153110 | 88 | 187 | 0.0 | 0.0 | 0.00 | 0.00 | 0.00 | 81 | 1014.9 |
| 20260904152606 | 87 | 226 | 0.0 | 0.0 | 0.00 | 0.00 | 0.00 | 84 | 1015.1 |
| 20260904152101 | 88 | 233 | 0.0 | 1.0 | 0.00 | 0.00 | 0.00 | 83 | 1015.0 |
| 20260904151556 | 88 | 166 | 0.0 | 0.0 | 0.00 | 0.00 | 0.00 | 82 | 1014.9 |
| 20260904151055 | 89 | 263 | 3.0 | 3.0 | 0.00 | 0.00 | 0.00 | 83 | 1014.7 |
| 20260904150550 | 90 | 195 | 0.0 | 0.0 | 0.00 | 0.00 | 0.00 | 81 | 1014.9 |
| 20260904150045 | 89 | 159 | 0.0 | 0.0 | 0.00 | 0.00 | 0.00 | 84 | 1014.9 |
| 20260904145544 | 89 | 118 | 0.0 | 0.0 | 0.00 | 0.00 | 0.00 | 84 | 1014.6 |
| 20260904145039 | 89 | 143 | 0.0 | 0.0 | 0.00 | 0.00 | 0.00 | 83 | 1015.0 |
| 20260904144535 | 88 | 123 | 0.0 | 0.0 | 0.00 | 0.00 | 0.00 | 84 | 1014.9 |
| 20260904144031 | 87 | 193 | 0.0 | 0.0 | 0.00 | 0.00 | 0.00 | 87 | 1014.9 |
| 20260904143526 | 86 | 251 | 0.0 | 0.0 | 0.00 | 0.00 | 0.00 | 89 | 1014.6 |
| 20260904143023 | 84 | 210 | 0.0 | 0.0 | 0.00 | 0.00 | 0.00 | 94 | 1014.7 |
| 20260904142519 | 84 | 163 | 0.0 | 0.0 | 0.00 | 0.00 | 0.00 | 98 | 1014.9 |
| 20260904142019 | 83 | 184 | 0.0 | 0.0 | 0.00 | 0.00 | 0.00 | 99 | 1014.5 |
| 20260904141515 | 82 | 157 | 0.0 | 0.0 | 0.00 | 0.00 | 0.00 | 99 | 1014.4 |
| 20260904141010 | 81 | 176 | 0.0 | 0.0 | 0.00 | 0.00 | 0.00 | 99 | 1014.8 |
| 20260904140505 | 81 | 220 | 0.0 | 0.0 | 0.00 | 0.00 | 0.00 | 99 | 1014.7 |
| 20260904140004 | 81 | 182 | 0.0 | 0.0 | 0.00 | 0.00 | 0.00 | 99 | 1014.5 |
| 20260904135458 | 81 | 156 | 0.0 | 0.0 | 0.00 | 0.00 | 0.00 | 99 | 1014.6 |
| 20260904134955 | 80 | 157 | 0.0 | 0.0 | 0.00 | 0.00 | 0.00 | 99 | 1014.3 |
| 20260904134454 | 80 | 67 | 0.0 | 0.0 | 0.00 | 0.00 | 0.00 | 99 | 1014.7 |
| 20260904133949 | 80 | 183 | 0.0 | 0.0 | 0.00 | 0.00 | 0.00 | 99 | 1014.3 |
| 20260904133444 | 79 | 81 | 0.0 | 0.0 | 0.00 | 0.00 | 0.00 | 99 | 1014.4 |
| 20260904132940 | 79 | 195 | 0.0 | 0.0 | 0.00 | 0.00 | 0.00 | 99 | 1014.5 |
| 20260904132435 | 79 | 163 | 0.0 | 0.0 | 0.00 | 0.00 | 0.00 | 99 | 1014.3 |
| 20260904131934 | 79 | 190 | 0.0 | 0.0 | 0.00 | 0.00 | 0.00 | 99 | 1014.6 |
| 20260904131429 | 79 | 146 | 0.0 | 0.0 | 0.00 | 0.00 | 0.00 | 99 | 1014.7 |
| 20260904130925 | 78 | 161 | 0.0 | 0.0 | 0.00 | 0.00 | 0.00 | 99 | 1014.7 |
| 20260904130424 | 78 | 155 | 0.0 | 0.0 | 0.00 | 0.00 | 0.00 | 99 | 1014.7 |
| 20260904125919 | 78 | 152 | 0.0 | 0.0 | 0.00 | 0.00 | 0.00 | 99 | 1014.5 |
| 20260904125416 | 79 | 203 | 0.0 | 0.0 | 0.00 | 0.00 | 0.00 | 99 | 1014.4 |
| 20260904124915 | 78 | 162 | 0.0 | 0.0 | 0.00 | 0.00 | 0.00 | 99 | 1014.3 |
| 20260904124411 | 78 | 142 | 0.0 | 0.0 | 0.00 | 0.00 | 0.00 | 99 | 1014.3 |
| 20260904123907 | 77 | 167 | 0.0 | 0.0 | 0.00 | 0.00 | 0.00 | 99 | 1014.3 |
| 20260904123407 | 77 | 156 | 0.0 | 0.0 | 0.00 | 0.00 | 0.00 | 99 | 1014.3 |
| 20260904122903 | 77 | 159 | 0.0 | 0.0 | 0.00 | 0.00 | 0.00 | 99 | 1014.3 |
| 20260904122402 | 77 | 168 | 0.0 | 0.0 | 0.00 | 0.00 | 0.00 | 99 | 1014.1 |
| 20260904121856 | 77 | 158 | 0.0 | 0.0 | 0.00 | 0.00 | 0.00 | 99 | 1014.2 |
| 20260904121353 | 77 | 169 | 0.0 | 0.0 | 0.00 | 0.00 | 0.00 | 99 | 1014.1 |
| 20260904120849 | 76 | 152 | 0.0 | 0.0 | 0.00 | 0.00 | 0.00 | 99 | 1013.9 |
| 20260904120345 | 76 | 157 | 0.0 | 0.0 | 0.00 | 0.00 | 0.00 | 99 | 1014.0 |
| 20260904115839 | 76 | 156 | 0.0 | 0.0 | 0.00 | 0.00 | 0.00 | 99 | 1014.0 |
| 20260904115335 | 76 | 151 | 0.0 | 0.0 | 0.00 | 0.00 | 0.00 | 99 | 1013.8 |
| 20260904114829 | 76 | 162 | 0.0 | 0.0 | 0.00 | 0.00 | 0.00 | 99 | 1014.0 |
| 20260904114324 | 75 | 165 | 0.0 | 0.0 | 0.00 | 0.00 | 0.00 | 99 | 1013.8 |
| 20260904113819 | 75 | 169 | 0.0 | 0.0 | 0.00 | 0.00 | 0.00 | 99 | 1013.9 |
| 20260904113319 | 75 | 172 | 0.0 | 0.0 | 0.00 | 0.00 | 0.00 | 99 | 1013.7 |
| 20260904112813 | 75 | 172 | 0.0 | 0.0 | 0.00 | 0.00 | 0.00 | 99 | 1013.5 |
| 20260904112309 | 75 | 172 | 0.0 | 0.0 | 0.00 | 0.00 | 0.00 | 99 | 1013.6 |
| 20260904111804 | 75 | 176 | 0.0 | 0.0 | 0.00 | 0.00 | 0.00 | 99 | 1013.4 |
| 20260904111300 | 75 | 176 | 0.0 | 0.0 | 0.00 | 0.00 | 0.00 | 99 | 1013.4 |
| 20260904110755 | 75 | 172 | 0.0 | 0.0 | 0.00 | 0.00 | 0.00 | 99 | 1013.6 |
| 20260904110254 | 75 | 172 | 0.0 | 0.0 | 0.00 | 0.00 | 0.00 | 99 | 1013.0 |
| 20260904105750 | 75 | 172 | 0.0 | 0.0 | 0.00 | 0.00 | 0.00 | 99 | 1013.4 |
| 20260904105244 | 75 | 176 | 0.0 | 0.0 | 0.00 | 0.00 | 0.00 | 99 | 1013.6 |
| 20260904104739 | 75 | 176 | 0.0 | 0.0 | 0.00 | 0.00 | 0.00 | 99 | 1013.4 |
| 20260904104235 | 75 | 173 | 0.0 | 0.0 | 0.00 | 0.00 | 0.00 | 99 | 1013.3 |
| 20260904103732 | 75 | 172 | 0.0 | 0.0 | 0.00 | 0.00 | 0.00 | 99 | 1013.2 |
| 20260904103226 | 75 | 172 | 0.0 | 0.0 | 0.00 | 0.00 | 0.00 | 99 | 1013.4 |
| 20260904102722 | 75 | 176 | 0.0 | 0.0 | 0.00 | 0.00 | 0.00 | 99 | 1013.2 |
| 20260904102217 | 75 | 169 | 0.0 | 0.0 | 0.00 | 0.00 | 0.00 | 99 | 1013.3 |
| 20260904101714 | 75 | 169 | 0.0 | 0.0 | 0.00 | 0.00 | 0.00 | 99 | 1013.2 |
| 20260904101209 | 75 | 169 | 0.0 | 0.0 | 0.00 | 0.00 | 0.00 | 99 | 1013.1 |
| 20260904100705 | 75 | 169 | 0.0 | 0.0 | 0.00 | 0.00 | 0.00 | 99 | 1013.0 |
| 20260904100201 | 75 | 169 | 0.0 | 0.0 | 0.00 | 0.00 | 0.00 | 99 | 1013.1 |
| 20260904095700 | 75 | 169 | 0.0 | 0.0 | 0.00 | 0.00 | 0.00 | 99 | 1013.0 |
| 20260904095155 | 75 | 169 | 0.0 | 0.0 | 0.00 | 0.00 | 0.00 | 99 | 1012.9 |
| 20260904094650 | 75 | 172 | 0.0 | 0.0 | 0.00 | 0.00 | 0.00 | 99 | 1012.8 |
| 20260904094145 | 75 | 169 | 0.0 | 0.0 | 0.00 | 0.00 | 0.00 | 99 | 1012.8 |
| 20260904093642 | 75 | 169 | 0.0 | 0.0 | 0.00 | 0.00 | 0.00 | 99 | 1012.8 |
| 20260904093141 | 75 | 162 | 0.0 | 0.0 | 0.00 | 0.00 | 0.00 | 99 | 1012.7 |
| 20260904092637 | 75 | 155 | 0.0 | 0.0 | 0.00 | 0.00 | 0.00 | 99 | 1012.9 |
| 20260904092133 | 75 | 147 | 0.0 | 0.0 | 0.00 | 0.00 | 0.00 | 99 | 1012.6 |
| 20260904091629 | 75 | 169 | 0.0 | 0.0 | 0.00 | 0.00 | 0.00 | 99 | 1012.8 |
| 20260904091129 | 75 | 172 | 0.0 | 0.0 | 0.00 | 0.00 | 0.00 | 99 | 1012.7 |
| 20260904090624 | 75 | 176 | 0.0 | 0.0 | 0.00 | 0.00 | 0.00 | 99 | 1012.6 |
| 20260904090120 | 75 | 176 | 0.0 | 0.0 | 0.00 | 0.00 | 0.00 | 99 | 1012.7 |
| 20260904085620 | 75 | 176 | 0.0 | 0.0 | 0.00 | 0.00 | 0.00 | 99 | 1012.7 |
| 20260904085120 | 75 | 169 | 0.0 | 0.0 | 0.00 | 0.00 | 0.00 | 99 | 1012.6 |
| 20260904084615 | 75 | 176 | 0.0 | 0.0 | 0.00 | 0.00 | 0.00 | 99 | 1012.5 |
| 20260904084112 | 75 | 172 | 0.0 | 0.0 | 0.00 | 0.00 | 0.00 | 99 | 1012.4 |
| 20260904083608 | 75 | 170 | 0.0 | 0.0 | 0.00 | 0.00 | 0.00 | 99 | 1012.6 |
| 20260904083103 | 75 | 169 | 0.0 | 0.0 | 0.00 | 0.00 | 0.00 | 99 | 1012.7 |
| 20260904082558 | 75 | 161 | 0.0 | 0.0 | 0.00 | 0.00 | 0.00 | 99 | 1012.4 |
| 20260904082054 | 75 | 176 | 0.0 | 0.0 | 0.00 | 0.00 | 0.00 | 99 | 1012.5 |
| 20260904081549 | 75 | 172 | 0.0 | 0.0 | 0.00 | 0.00 | 0.00 | 99 | 1012.6 |
| 20260904081044 | 75 | 176 | 0.0 | 0.0 | 0.00 | 0.00 | 0.00 | 99 | 1012.6 |
| 20260904080540 | 75 | 169 | 0.0 | 0.0 | 0.00 | 0.00 | 0.00 | 99 | 1012.9 |
| 20260904080036 | 76 | 169 | 0.0 | 0.0 | 0.00 | 0.00 | 0.00 | 99 | 1013.0 |
| 20260904075532 | 76 | 176 | 0.0 | 0.0 | 0.00 | 0.00 | 0.00 | 99 | 1012.9 |
| 20260904075026 | 76 | 172 | 0.0 | 0.0 | 0.00 | 0.00 | 0.00 | 99 | 1012.7 |
| 20260904074520 | 75 | 172 | 0.0 | 0.0 | 0.00 | 0.00 | 0.00 | 99 | 1012.7 |
| 20260904074020 | 75 | 176 | 0.0 | 0.0 | 0.00 | 0.00 | 0.00 | 99 | 1012.5 |
| 20260904073515 | 75 | 176 | 0.0 | 0.0 | 0.00 | 0.00 | 0.00 | 99 | 1012.6 |
| 20260904073012 | 75 | 176 | 0.0 | 0.0 | 0.00 | 0.00 | 0.00 | 99 | 1012.7 |
| 20260904072507 | 75 | 161 | 0.0 | 0.0 | 0.00 | 0.00 | 0.00 | 99 | 1012.5 |
| 20260904072002 | 75 | 171 | 0.0 | 0.0 | 0.00 | 0.00 | 0.00 | 99 | 1012.4 |
| 20260904071457 | 75 | 172 | 0.0 | 0.0 | 0.00 | 0.00 | 0.00 | 99 | 1012.4 |
| 20260904070952 | 75 | 161 | 0.0 | 0.0 | 0.00 | 0.00 | 0.00 | 99 | 1012.4 |
| 20260904070450 | 75 | 169 | 0.0 | 0.0 | 0.00 | 0.00 | 0.00 | 99 | 1012.6 |
| 20260904065945 | 75 | 148 | 0.0 | 0.0 | 0.00 | 0.00 | 0.00 | 99 | 1012.5 |
| 20260904065441 | 75 | 169 | 0.0 | 0.0 | 0.00 | 0.00 | 0.00 | 99 | 1012.6 |
| 20260904064936 | 75 | 169 | 0.0 | 0.0 | 0.00 | 0.00 | 0.00 | 99 | 1012.6 |
| 20260904064433 | 75 | 169 | 0.0 | 0.0 | 0.00 | 0.00 | 0.00 | 99 | 1012.5 |
| 20260904063928 | 75 | 161 | 0.0 | 0.0 | 0.00 | 0.00 | 0.00 | 99 | 1012.6 |
| 20260904063424 | 75 | 162 | 0.0 | 0.0 | 0.00 | 0.00 | 0.00 | 99 | 1012.6 |
| 20260904062919 | 75 | 161 | 0.0 | 0.0 | 0.00 | 0.00 | 0.00 | 99 | 1012.7 |
| 20260904062415 | 75 | 169 | 0.0 | 0.0 | 0.00 | 0.00 | 0.00 | 99 | 1012.7 |
| 20260904061911 | 75 | 165 | 0.0 | 0.0 | 0.00 | 0.00 | 0.00 | 99 | 1012.6 |
| 20260904061407 | 75 | 162 | 0.0 | 0.0 | 0.00 | 0.00 | 0.00 | 99 | 1013.1 |
| 20260904060903 | 75 | 165 | 0.0 | 0.0 | 0.00 | 0.00 | 0.00 | 99 | 1012.7 |
| 20260904060358 | 75 | 162 | 0.0 | 0.0 | 0.00 | 0.00 | 0.00 | 99 | 1013.0 |
| 20260904055853 | 75 | 161 | 0.0 | 0.0 | 0.00 | 0.00 | 0.00 | 99 | 1012.8 |
| 20260904055349 | 75 | 162 | 0.0 | 0.0 | 0.00 | 0.00 | 0.00 | 99 | 1013.0 |
| 20260904054844 | 76 | 169 | 0.0 | 0.0 | 0.00 | 0.00 | 0.00 | 99 | 1013.0 |
| 20260904054340 | 76 | 169 | 0.0 | 0.0 | 0.00 | 0.00 | 0.00 | 99 | 1012.9 |
| 20260904053836 | 76 | 156 | 0.0 | 0.0 | 0.00 | 0.00 | 0.00 | 99 | 1012.9 |
| 20260904053335 | 76 | 169 | 0.0 | 0.0 | 0.00 | 0.00 | 0.00 | 99 | 1012.8 |
| 20260904052831 | 76 | 162 | 0.0 | 0.0 | 0.00 | 0.00 | 0.00 | 99 | 1013.1 |
| 20260904052327 | 76 | 162 | 0.0 | 0.0 | 0.00 | 0.00 | 0.00 | 99 | 1013.2 |
| 20260904051823 | 76 | 169 | 0.0 | 0.0 | 0.00 | 0.00 | 0.00 | 99 | 1013.1 |
| 20260904051319 | 76 | 170 | 0.0 | 0.0 | 0.00 | 0.00 | 0.00 | 99 | 1013.0 |
| 20260904050813 | 76 | 163 | 0.0 | 0.0 | 0.00 | 0.00 | 0.00 | 99 | 1013.3 |
| 20260904050305 | 76 | 172 | 0.0 | 0.0 | 0.00 | 0.00 | 0.00 | 99 | 1013.3 |
| 20260904045804 | 76 | 176 | 0.0 | 0.0 | 0.00 | 0.00 | 0.00 | 99 | 1013.3 |
| 20260904045259 | 76 | 177 | 0.0 | 0.0 | 0.00 | 0.00 | 0.00 | 99 | 1013.3 |
| 20260904044754 | 76 | 172 | 0.0 | 0.0 | 0.00 | 0.00 | 0.00 | 99 | 1013.4 |
| 20260904044251 | 76 | 163 | 0.0 | 0.0 | 0.00 | 0.00 | 0.00 | 99 | 1013.3 |
| 20260904043746 | 76 | 168 | 0.0 | 0.0 | 0.00 | 0.00 | 0.00 | 99 | 1013.3 |
| 20260904043242 | 76 | 165 | 0.0 | 0.0 | 0.00 | 0.00 | 0.00 | 99 | 1013.3 |
| 20260904042737 | 76 | 165 | 0.0 | 0.0 | 0.00 | 0.00 | 0.00 | 99 | 1013.4 |
| 20260904042234 | 76 | 166 | 0.0 | 0.0 | 0.00 | 0.00 | 0.00 | 99 | 1013.5 |
| 20260904041733 | 76 | 166 | 0.0 | 0.0 | 0.00 | 0.00 | 0.00 | 99 | 1013.4 |
| 20260904041230 | 76 | 158 | 0.0 | 0.0 | 0.00 | 0.00 | 0.00 | 99 | 1013.6 |
| 20260904040725 | 76 | 164 | 0.0 | 0.0 | 0.00 | 0.00 | 0.00 | 99 | 1013.6 |
| 20260904040221 | 76 | 171 | 0.0 | 0.0 | 0.00 | 0.00 | 0.00 | 99 | 1013.5 |
| 20260904035717 | 76 | 163 | 0.0 | 0.0 | 0.00 | 2.53 | 2.53 | 99 | 1013.5 |
| 20260904035212 | 76 | 159 | 0.0 | 0.0 | 0.00 | 2.53 | 2.53 | 99 | 1013.5 |
| 20260904034711 | 76 | 172 | 0.0 | 0.0 | 0.00 | 2.53 | 2.53 | 99 | 1013.3 |
| 20260904034207 | 76 | 159 | 0.0 | 0.0 | 0.00 | 2.53 | 2.53 | 99 | 1013.3 |
| 20260904033703 | 76 | 160 | 0.0 | 0.0 | 0.00 | 2.53 | 2.53 | 99 | 1013.5 |
| 20260904033159 | 77 | 145 | 0.0 | 0.0 | 0.00 | 2.53 | 2.53 | 99 | 1013.7 |
| 20260904032655 | 76 | 153 | 0.0 | 0.0 | 0.00 | 2.53 | 2.53 | 99 | 1013.8 |
| 20260904032153 | 77 | 156 | 0.0 | 0.0 | 0.00 | 2.53 | 2.53 | 99 | 1013.6 |
| 20260904031648 | 77 | 152 | 0.0 | 0.0 | 0.00 | 2.53 | 2.53 | 99 | 1013.6 |
| 20260904031144 | 77 | 162 | 0.0 | 0.0 | 0.00 | 2.53 | 2.53 | 99 | 1013.5 |
| 20260904030639 | 77 | 154 | 0.0 | 0.0 | 0.00 | 2.53 | 2.53 | 99 | 1013.6 |
| 20260904030135 | 77 | 157 | 0.0 | 0.0 | 0.00 | 2.53 | 2.53 | 99 | 1013.5 |
| 20260904025630 | 76 | 169 | 0.0 | 0.0 | 0.00 | 2.53 | 2.53 | 99 | 1013.5 |
| 20260904025125 | 76 | 162 | 0.0 | 0.0 | 0.00 | 2.53 | 2.53 | 99 | 1013.5 |
| 20260904024621 | 77 | 170 | 0.0 | 0.0 | 0.00 | 2.53 | 2.53 | 99 | 1013.7 |
| 20260904024116 | 77 | 152 | 0.0 | 0.0 | 0.00 | 2.53 | 2.53 | 99 | 1013.4 |
| 20260904023612 | 76 | 152 | 0.0 | 0.0 | 0.00 | 2.53 | 2.53 | 99 | 1013.3 |
| 20260904023108 | 76 | 167 | 0.0 | 0.0 | 0.00 | 2.53 | 2.53 | 99 | 1013.6 |
| 20260904022608 | 76 | 164 | 0.0 | 0.0 | 0.00 | 2.53 | 2.53 | 99 | 1013.7 |
| 20260904022105 | 76 | 166 | 0.0 | 0.0 | 0.00 | 2.53 | 2.53 | 99 | 1013.3 |
| 20260904021600 | 76 | 160 | 0.0 | 0.0 | 0.00 | 2.53 | 2.53 | 99 | 1013.3 |
| 20260904021055 | 76 | 160 | 0.0 | 0.0 | 0.00 | 2.53 | 2.53 | 99 | 1013.4 |
| 20260904020550 | 76 | 167 | 0.0 | 0.0 | 0.00 | 2.53 | 2.53 | 99 | 1013.0 |
| 20260904020045 | 76 | 157 | 0.0 | 0.0 | 0.00 | 2.53 | 2.53 | 99 | 1013.0 |
| 20260904015539 | 76 | 139 | 0.0 | 0.0 | 0.00 | 2.53 | 2.53 | 99 | 1013.0 |
| 20260904015038 | 76 | 152 | 0.0 | 0.0 | 0.00 | 2.53 | 2.53 | 99 | 1013.1 |
| 20260904014532 | 76 | 152 | 0.0 | 0.0 | 0.00 | 2.53 | 2.53 | 99 | 1012.9 |
| 20260904014028 | 76 | 139 | 0.0 | 0.0 | 0.00 | 2.53 | 2.53 | 99 | 1013.0 |
| 20260904013524 | 76 | 155 | 0.0 | 0.0 | 0.00 | 2.53 | 2.53 | 99 | 1013.0 |
| 20260904013021 | 76 | 153 | 0.0 | 0.0 | 0.00 | 2.53 | 2.53 | 99 | 1012.9 |
| 20260904012520 | 76 | 154 | 0.0 | 0.0 | 0.00 | 2.53 | 2.53 | 99 | 1013.0 |
| 20260904012015 | 76 | 152 | 0.0 | 0.0 | 0.00 | 2.53 | 2.53 | 99 | 1012.8 |
| 20260904011514 | 77 | 147 | 0.0 | 0.0 | 0.00 | 2.53 | 2.53 | 99 | 1012.8 |
| 20260904011010 | 77 | 156 | 0.0 | 0.0 | 0.00 | 2.53 | 2.53 | 99 | 1012.7 |
| 20260904010506 | 76 | 149 | 0.0 | 0.0 | 0.00 | 2.53 | 2.53 | 99 | 1012.9 |
| 20260904010001 | 76 | 140 | 0.0 | 0.0 | 0.00 | 2.53 | 2.53 | 99 | 1012.9 |
| 20260904005456 | 76 | 135 | 0.0 | 0.0 | 0.07 | 2.53 | 2.53 | 99 | 1012.8 |
| 20260904004951 | 75 | 144 | 0.0 | 0.0 | 0.07 | 2.53 | 2.53 | 99 | 1013.0 |
| 20260904004447 | 76 | 150 | 0.0 | 0.0 | 0.00 | 2.52 | 2.52 | 99 | 1012.8 |
| 20260904003947 | 75 | 152 | 0.0 | 0.0 | 0.00 | 2.52 | 2.52 | 99 | 1012.8 |
| 20260904003443 | 75 | 161 | 0.0 | 0.0 | 0.07 | 2.52 | 2.52 | 99 | 1012.8 |
| 20260904002938 | 75 | 159 | 0.0 | 0.0 | 0.07 | 2.52 | 2.52 | 99 | 1012.8 |
| 20260904002435 | 75 | 150 | 0.0 | 0.0 | 0.00 | 2.51 | 2.51 | 99 | 1012.8 |
| 20260904001933 | 75 | 140 | 0.0 | 0.0 | 0.05 | 2.51 | 2.51 | 99 | 1012.8 |
| 20260904001429 | 75 | 132 | 0.0 | 0.0 | 0.05 | 2.51 | 2.51 | 99 | 1012.7 |
| 20260904000924 | 75 | 140 | 0.0 | 0.0 | 0.00 | 2.50 | 2.50 | 99 | 1012.6 |
| 20260904000425 | 75 | 134 | 0.0 | 0.0 | 0.00 | 2.50 | 2.50 | 99 | 1012.8 |
| 20260903235918 | 75 | 151 | 0.0 | 0.0 | 0.07 | 2.50 | 2.50 | 99 | 1012.8 |
| 20260903235415 | 74 | 147 | 0.0 | 0.0 | 0.12 | 2.50 | 2.50 | 99 | 1012.6 |
| 20260903234914 | 74 | 161 | 0.0 | 0.0 | 0.24 | 2.50 | 2.50 | 99 | 1012.6 |
| 20260903234410 | 74 | 165 | 0.0 | 0.0 | 0.40 | 2.49 | 2.49 | 99 | 1012.6 |
| 20260903233906 | 75 | 146 | 0.0 | 0.0 | 1.32 | 2.46 | 2.46 | 99 | 1012.9 |
| 20260903233402 | 75 | 164 | 0.0 | 0.0 | 2.76 | 2.42 | 2.42 | 99 | 1012.7 |
| 20260903232902 | 75 | 95 | 0.0 | 0.0 | 4.70 | 2.29 | 2.29 | 99 | 1012.8 |
| 20260903232357 | 77 | 215 | 0.0 | 0.0 | 5.88 | 1.96 | 1.96 | 99 | 1013.3 |
| 20260903231856 | 77 | 158 | 0.0 | 0.0 | 5.50 | 1.51 | 1.51 | 99 | 1013.4 |
| 20260903231351 | 77 | 173 | 0.0 | 0.0 | 3.24 | 0.95 | 0.95 | 99 | 1013.3 |
| 20260903230847 | 80 | 232 | 0.0 | 0.0 | 0.66 | 0.50 | 0.50 | 98 | 1013.2 |
| 20260903230342 | 81 | 195 | 0.0 | 0.0 | 0.64 | 0.40 | 0.40 | 98 | 1012.8 |
| 20260903225838 | 80 | 269 | 0.0 | 1.0 | 0.73 | 0.39 | 0.39 | 98 | 1012.6 |
| 20260903225334 | 81 | 142 | 0.0 | 0.0 | 0.24 | 0.30 | 0.30 | 97 | 1012.7 |
| 20260903224830 | 81 | 144 | 0.0 | 0.0 | 0.05 | 0.27 | 0.27 | 96 | 1012.4 |
| 20260903224326 | 82 | 167 | 0.0 | 0.0 | 0.07 | 0.26 | 0.26 | 96 | 1012.3 |